Location: Grust
(42.8833°N, 0.0333°W)
Time: 19:24:15
(UTC+00:00)

Cosmos 2219 - Pass Details

Date: 25 October 2020
Orbit: 832 x 862 km, 71.1° (Epoch: 23 November)

Event Time Altitude Azimuth Distance (km) Brightness Sun altitude
Rises 18:58:30 0° 333° (NNW) 3,445 6.8 -22.0°
Reaches altitude 10° 19:00:59 10° 330° (NNW) 2,506 6.1 -22.5°
Maximum altitude 19:06:41 67° 249° (WSW) 933 3.5 -23.5°
Enters shadow 19:11:49 13° 169° (S) 2,286 5.3 -24.5°
